Regional Weather Roundup
Issued by NWS State College, PA

Home | Current Version | Previous Version | Graphics & Text | Print | Product List | Glossary On
Versions: 1 2 3 4 5 6 7 8 9 10 11 12 13 14 15 16 17 18 19 20 21 22 23 24 25 26 27 28 29 30 31 32 33 34 35 36 37 38 39 40 41 42 43 44 45 46 47 48 49 50
000
ASUS41 KCTP 262010
RWRCTP

REGIONAL WEATHER ROUNDUP
NATIONAL WEATHER SERVICE STATE COLLEGE PA
400 PM EDT THU MAR 26 2015

Note: "fair" indicates few or no clouds below 12,000 feet with no
significant weather and/or obstructions to visibility.

* = STATION THAT DOES NOT REPORT PRECIPITATION /E.G. RAIN...SNOW...ETC/
    THUNDER OR FOG.

PAZ002>004-007>009-013>016-020>023-029>032-262100-
WESTERN PENNSYLVANIA

CITY           SKY/WX    TMP DP  RH WIND       PRES   REMARKS
ERIE           CLOUDY    34  32  92 VRB3      29.79F FOG
MEADVILLE      MIX PCPN  36  33  89 NW7       29.77R FOG
FRANKLIN*      CLOUDY    37  36  93 NW7       29.77S
NEW CASTLE     CLOUDY    41  39  92 NW9       29.79F
BEAVER COUNTY  CLOUDY    41  39  93 NW6       29.77R
BUTLER*        CLOUDY    41  37  87 N5        29.78R
PITTSBURGH INT DRIZZLE   43  40  89 N12       29.77R
PITTSBURGH     LGT RAIN  42  37  82 N13G18    29.75S
INDIANA*       CLOUDY    43  43 100 VRB7      29.77R
LATROBE        LGT RAIN  43  43 100 NW6       29.77R FOG
WASHINGTON CO* CLOUDY    43  39  87 NW6       29.79R
$$

PAZ004>006-010>012-017>019-024>028-033>037-041-042-045-046-049>053-262100-
CENTRAL PENNSYLVANIA

CITY           SKY/WX    TMP DP  RH WIND       PRES   REMARKS
BRADFORD       CLOUDY    36  35  96 N5        29.71S
DUBOIS         CLOUDY    41  38  89 N9        29.71R
CLEARFIELD     CLOUDY    42  39  89 N3        29.71R
JOHNSTOWN      LGT RAIN  43  41  93 N6        29.69R
ALTOONA        LGT RAIN  56  47  71 N10       29.64R
STATE COLLEGE  DRIZZLE   46  43  87 NW6       29.68R
WILLIAMSPORT   LGT RAIN  48  43  82 W7        29.66R
SELINSGROVE    CLOUDY    63  53  70 S7        29.60F
FT INDIANTOWN  PTSUNNY   59  50  72 VRB3      29.62F
CAPITAL CITY   MOSUNNY   70  55  59 S14       29.58F
HARRISBURG     PTSUNNY   67  54  63 SE14G21   29.59F
YORK           MOSUNNY   68  56  65 S8        29.60F
$$

PAZ038>040-043-044-047-048-054-055-060>062-067>071-262100-
EASTERN PENNSYLVANIA

CITY           SKY/WX    TMP DP  RH WIND       PRES   REMARKS
SCRANTON       CLOUDY    57  49  74 S10G17    29.60F HAZE
MOUNT POCONO   FOG       49  48  97 SW9       29.64F VSB<1/4
ALLENTOWN      CLOUDY    49  46  90 E3        29.66F FOG
QUAKERTOWN*    CLOUDY    55  55 100 SW3       29.67F VSB 3/4
READING        CLOUDY    61  56  83 S5        29.64F HAZE
LANCASTER      CLOUDY    63  58  83 S15G23    29.62F
COATESVILLE    CLOUDY    59  59 100 S6        29.67F FOG
POTTSTOWN      CLOUDY    59  59 100 S8        29.68F
BLUE BELL      PTSUNNY   64  61  88 S7        29.66F
DOYLESTOWN     CLOUDY    58  58 100 S5        29.65F FOG
WILLOW GROVE   NOT AVBL
NORTH PHILA    CLOUDY    67  58  72 S14G21    29.68F
PHILADELPHIA   CLOUDY    65  59  81 S17G25    29.67F
$$


USA.gov is the U.S. government's official web portal to all federal, state and local government web resources and services.